This demonstration page uses our WeatherBlox Daily Observations layout. Learn more.

Hourly Observations for April 14, 2019

Temp ( °F °C ) Dew Point ( °F °C ) Humidity (%) Winds ( mph kmh ) Pressure ( in mb ) Visibility ( mi km ) Precip ( " mm )
12:15 am 00:15 Clear 32 0.1 28 -2.2 85 85 ENE 3 6 30.1 1019 10 16.0934 0 0
12:35 am 00:35 Clear 32 0 28 -2.2 85 85 Calm 30.1 1019 10 16.0934 0 0
12:55 am 00:55 Clear 32 0 28 -2.5 83 83 Calm 30.09 1019 10 16.0934 0 0
1:15 am 01:15 Clear 30 -0.9 28 -2.4 90 90 Calm 30.1 1019 10 16.0934 0 0
1:35 am 01:35 Clear 32 -0.1 28 -2.2 86 86 Calm 30.1 1019 10 16.0934 0 0
1:55 am 01:55 Clear 30 -1.3 28 -2.3 93 93 Calm 30.1 1019 10 16.0934 0 0
2:15 am 02:15 Clear 30 -1 28 -2.4 90 90 Calm 30.08 1019 10 16.0934 0 0
2:35 am 02:35 Clear 30 -1.2 27 -2.6 90 90 Calm 30.08 1018 10 16.0934 0 0
2:55 am 02:55 Clear 31 -0.7 27 -2.6 87 87 ESE 3 6 30.07 1018 10 16.0934 0 0
3:15 am 03:15 Clear 29 -1.5 27 -2.9 90 90 ESE 7 11 30.08 1019 10 16.0934 0 0
3:35 am 03:35 Clear 29 -1.5 25 -3.7 85 85 ESE 7 11 30.08 1019 10 16.0934 0 0
3:55 am 03:55 Clear 29 -1.6 25 -3.7 86 86 ESE 7 11 30.07 1018 10 16.0934 0 0
4:15 am 04:15 Clear 29 -1.6 25 -3.8 85 85 ESE 8 13 30.07 1018 10 16.0934 0 0
4:35 am 04:35 Partly Cloudy 29 -1.8 25 -3.9 86 86 ESE 6 9 30.07 1018 10 16.0934 0 0
4:55 am 04:55 Cloudy 29 -1.5 26 -3.6 86 86 ESE 6 9 30.06 1018 10 16.0934 0 0
5:15 am 05:15 Partly Cloudy 28 -2 25 -3.7 88 88 E 5 7 30.05 1018 10 16.0934 0 0
5:35 am 05:35 Mostly Cloudy 29 -1.9 25 -3.7 88 88 ESE 5 7 30.04 1017 10 16.0934 0 0
5:55 am 05:55 Cloudy 30 -1.2 26 -3.2 86 86 Calm 30.04 1017 10 16.0934 0 0
6:15 am 06:15 Cloudy 31 -0.8 27 -3 85 85 ESE 5 7 30.03 1017 10 16.0934 0 0
6:35 am 06:35 Cloudy 31 -0.8 27 -3 85 85 SE 3 6 30.03 1017 10 16.0934 0 0
6:55 am 06:55 Cloudy 30 -0.9 26 -3.3 84 84 SSE 3 6 30.02 1017 10 16.0934 0 0
7:15 am 07:15 Cloudy 30 -1 26 -3.4 84 84 SE 3 6 30.02 1017 10 16.0934 0 0
7:35 am 07:35 Cloudy 30 -1.1 26 -3.5 84 84 Calm 30.03 1017 10 16.0934 0 0
7:55 am 07:55 Cloudy 30 -1.2 27 -3 88 88 Calm 30.03 1017 10 16.0934 0 0
8:15 am 08:15 Partly Cloudy 30 -1.3 26 -3.2 87 87 S 3 6 30.03 1017 10 16.0934 0 0
8:35 am 08:35 Partly Cloudy 30 -1 26 -3.3 85 85 Calm 30.02 1017 10 16.0934 0 0
8:55 am 08:55 Cloudy 32 0 27 -2.6 83 83 SSE 7 11 30 1016 10 16.0934 0 0
9:15 am 09:15 Cloudy 32 0.2 29 -1.9 86 86 SSE 8 13 29.99 1016 10 16.0934 0 0
9:35 am 09:35 Partly Cloudy 35 1.5 29 -1.8 79 79 S 8 13 29.98 1015 10 16.0934 0 0
9:55 am 09:55 Partly Cloudy 36 2.4 29 -1.5 76 76 S 9 15 29.96 1015 10 16.0934 0 0
10:15 am 10:15 Partly Cloudy 38 3.4 29 -1.9 69 69 S 9 15 29.95 1014 10 16.0934 0 0
10:35 am 10:35 Sunny 39 4 29 -1.4 68 68 S 9 15 29.95 1014 10 16.0934 0 0
10:55 am 10:55 Sunny 42 5.3 30 -1.1 64 64 S 10 17 29.93 1013 10 16.0934 0 0
11:15 am 11:15 Sunny 43 6 30 -1.3 60 60 S 9 15 29.91 1013 10 16.0934 0 0
11:35 am 11:35 Sunny 45 7 30 -1.1 57 57 S 9 15 29.89 1012 10 16.0934 0 0
11:55 am 11:55 Sunny 46 7.8 31 -0.7 55 55 SSE 13 20 29.88 1012 10 16.0934 0 0
12:15 pm 12:15 Sunny 47 8.5 30 -1.1 51 51 SSW 13 20 29.87 1011 10 16.0934 0 0
12:35 pm 12:35 Sunny 49 9.3 31 -0.8 50 50 S 15 24 29.84 1010 10 16.0934 0 0
12:55 pm 12:55 Sunny 50 10.2 31 -0.6 47 47 S 16 26 29.83 1010 10 16.0934 0 0
1:15 pm 13:15 Sunny 51 10.8 31 -0.4 46 46 S 17 28 29.82 1010 10 16.0934 0 0
1:35 pm 13:35 Partly Cloudy 53 11.5 32 0 45 45 SSW 13 20 29.79 1009 10 16.0934 0 0
1:55 pm 13:55 Partly Cloudy 55 12.5 32 0.2 43 43 S 20 31 29.77 1008 10 16.0934 0 0
2:15 pm 14:15 Partly Cloudy 55 12.8 32 0.1 42 42 S 14 22 29.76 1008 10 16.0934 0 0
2:35 pm 14:35 Partly Cloudy 56 13.2 33 0.6 42 42 SSW 13 20 29.74 1007 10 16.0934 0 0
2:55 pm 14:55 Sunny 57 13.9 33 0.5 40 40 SSW 17 28 29.73 1007 10 16.0934 0 0
3:15 pm 15:15 Sunny 57 14.1 33 0.3 39 39 SSW 16 26 29.72 1006 10 16.0934 0 0
3:35 pm 15:35 Sunny 59 15.2 33 0.8 38 38 SSW 16 26 29.7 1006 10 16.0934 0 0
3:55 pm 15:55 Sunny 60 15.3 34 0.9 38 38 S 16 26 29.68 1005 10 16.0934 0 0
4:15 pm 16:15 Sunny 60 15.7 33 0.6 36 36 S 14 22 29.66 1005 10 16.0934 0 0
4:35 pm 16:35 Sunny 62 16.5 33 0.5 34 34 SSW 15 24 29.65 1004 10 16.0934 0 0
4:55 pm 16:55 Sunny 62 16.9 33 0.5 33 33 SSW 14 22 29.63 1004 10 16.0934 0 0
5:15 pm 17:15 Partly Cloudy 61 16.2 33 0.3 34 34 S 14 22 29.64 1004 10 16.0934 0 0
5:35 pm 17:35 Partly Cloudy 61 16 34 1.2 37 37 S 13 20 29.64 1004 10 16.0934 0 0
5:55 pm 17:55 Sunny 60 15.6 35 1.5 39 39 SSE 13 20 29.63 1004 10 16.0934 0 0
6:15 pm 18:15 Sunny 60 15.7 35 1.6 39 39 SSE 12 19 29.63 1004 10 16.0934 0 0
6:35 pm 18:35 Sunny 60 15.5 34 1 38 38 SSE 13 20 29.64 1004 10 16.0934 0 0
6:55 pm 18:55 Partly Cloudy 59 15.1 35 1.4 40 40 SSE 10 17 29.64 1004 10 16.0934 0 0
7:15 pm 19:15 Partly Cloudy 58 14.7 35 1.5 41 41 SSE 10 17 29.63 1003 10 16.0934 0 0
7:35 pm 19:35 Partly Cloudy 57 14.1 35 1.8 44 44 SSE 13 20 29.64 1004 10 16.0934 0 0
7:55 pm 19:55 Mostly Cloudy 56 13.6 36 2 46 46 SSE 10 17 29.64 1004 10 16.0934 0 0
8:15 pm 20:15 Cloudy 55 12.6 36 2.3 50 50 SE 12 19 29.64 1004 10 16.0934 0 0
8:35 pm 20:35 Partly Cloudy 53 11.6 36 2.4 54 54 SSE 10 17 29.66 1004 10 16.0934 0 0
8:55 pm 20:55 Mostly Cloudy 53 11.8 37 2.5 53 53 SSE 13 20 29.67 1005 10 16.0934 0 0
9:15 pm 21:15 Cloudy 53 11.5 37 2.5 54 54 SSE 12 19 29.68 1005 10 16.0934 0 0
9:35 pm 21:35 Mostly Cloudy 52 11 37 2.5 56 56 SE 10 17 29.68 1005 10 16.0934 0 0
9:55 pm 21:55 Partly Cloudy 51 10.7 37 2.5 57 57 SSE 13 20 29.69 1005 10 16.0934 0 0
10:15 pm 22:15 Mostly Cloudy 50 10.1 37 2.6 60 60 SSE 9 15 29.71 1006 10 16.0934 0 0
10:35 pm 22:35 Mostly Cloudy 50 10 37 2.8 61 61 SSE 13 20 29.7 1006 10 16.0934 0 0
10:55 pm 22:55 Mostly Cloudy 50 9.8 37 3 63 63 SSE 7 11 29.71 1006 10 16.0934 0 0
11:15 pm 23:15 Partly Cloudy 49 9.6 37 3 64 64 SSE 9 15 29.72 1006 10 16.0934 0 0
11:35 pm 23:35 Clear 49 9.3 37 3 65 65 SSE 7 11 29.72 1006 10 16.0934 0 0
11:55 pm 23:55 Clear 49 9.3 37 3 65 65 SSE 8 13 29.71 1006 10 16.0934 0 0

Powered by AerisWeather